Radiation Dose at Monitoring Post of Fukushima Daini Nuclear Power Station
Date,Time,MP-1(microSv/h),MP-2(microSv/h),MP-3(microSv/h),MP-4(microSv/h),MP-5(microSv/h),MP-6(microSv/h),MP-7(microSv/h),Wind Direction,Wind Velocity(m/s),Rain
2023/07/16,00:00,0.142,0.132,0.204,0.195,0.207,0.114,0.075,west-southwest,3.4,No
2023/07/16,00:10,0.142,0.131,0.202,0.197,0.204,0.114,0.075,west-southwest,4.0,No
2023/07/16,00:20,0.144,0.130,0.205,0.197,0.205,0.115,0.074,west-southwest,5.0,No
2023/07/16,00:30,0.143,0.132,0.204,0.195,0.209,0.115,0.074,west-southwest,5.1,No
2023/07/16,00:40,0.142,0.132,0.203,0.196,0.207,0.114,0.075,west-southwest,5.5,No
2023/07/16,00:50,0.143,0.130,0.203,0.197,0.206,0.115,0.075,west-southwest,4.8,No
2023/07/16,01:00,0.144,0.131,0.204,0.196,0.205,0.115,0.074,west-southwest,5.2,No
2023/07/16,01:10,0.142,0.131,0.202,0.193,0.208,0.114,0.075,west-southwest,4.8,No
2023/07/16,01:20,0.143,0.130,0.204,0.198,0.207,0.114,0.075,west-southwest,3.8,No
2023/07/16,01:30,0.143,0.131,0.205,0.196,0.206,0.115,0.073,west,3.2,No
2023/07/16,01:40,0.142,0.131,0.203,0.195,0.206,0.114,0.075,west-southwest,4.2,No
2023/07/16,01:50,0.141,0.130,0.204,0.197,0.207,0.115,0.074,west-southwest,4.2,No
2023/07/16,02:00,0.144,0.132,0.205,0.198,0.206,0.116,0.074,west-southwest,5.1,No
2023/07/16,02:10,0.142,0.131,0.204,0.195,0.204,0.114,0.075,west-southwest,3.8,No
2023/07/16,02:20,0.142,0.130,0.203,0.196,0.206,0.114,0.075,southwest,3.0,No
2023/07/16,02:30,0.144,0.131,0.205,0.198,0.208,0.115,0.075,west-southwest,3.9,No
2023/07/16,02:40,0.143,0.132,0.204,0.197,0.206,0.114,0.074,southwest,3.5,No
2023/07/16,02:50,0.143,0.131,0.203,0.194,0.205,0.114,0.075,west-southwest,3.7,No
2023/07/16,03:00,0.143,0.130,0.205,0.198,0.208,0.115,0.074,west,1.9,No
2023/07/16,03:10,0.143,0.130,0.205,0.196,0.207,0.115,0.074,west,1.9,No
2023/07/16,03:20,0.142,0.130,0.203,0.195,0.204,0.113,0.075,west-southwest,3.9,No
2023/07/16,03:30,0.143,0.132,0.206,0.197,0.205,0.115,0.075,west-southwest,5.0,No
2023/07/16,03:40,-,-,-,-,-,-,-,-,-,-
2023/07/16,03:50,0.141,0.130,0.203,0.195,0.207,0.114,0.076,west,3.4,No
2023/07/16,04:00,0.143,0.132,0.205,0.195,0.205,0.114,0.074,west-southwest,4.1,No
2023/07/16,04:10,0.143,0.132,0.204,0.196,0.204,0.114,0.074,west-southwest,4.7,No
2023/07/16,04:20,0.141,0.130,0.203,0.195,0.207,0.114,0.074,west-southwest,5.1,No
2023/07/16,04:30,0.142,0.130,0.205,0.194,0.207,0.114,0.074,west-southwest,5.0,No
2023/07/16,04:40,0.143,0.131,0.205,0.196,0.205,0.115,0.074,west-southwest,4.6,No
2023/07/16,04:50,0.142,0.130,0.203,0.196,0.205,0.115,0.074,west,5.7,No
2023/07/16,05:00,0.141,0.130,0.205,0.194,0.208,0.113,0.073,west-southwest,6.1,No
2023/07/16,05:10,0.142,0.131,0.204,0.195,0.206,0.115,0.074,west-southwest,6.5,No
2023/07/16,05:20,0.144,0.129,0.203,0.196,0.205,0.114,0.074,west-southwest,8.1,No
2023/07/16,05:30,0.141,0.130,0.205,0.196,0.204,0.113,0.074,west-southwest,6.5,No
2023/07/16,05:40,0.142,0.132,0.204,0.193,0.205,0.114,0.074,west-southwest,7.5,No
2023/07/16,05:50,0.144,0.130,0.203,0.196,0.207,0.114,0.075,west-southwest,6.1,No
2023/07/16,06:00,0.142,0.131,0.203,0.198,0.206,0.113,0.074,west-southwest,6.6,No
2023/07/16,06:10,0.141,0.130,0.206,0.196,0.206,0.113,0.073,west-southwest,6.2,No
2023/07/16,06:20,0.141,0.130,0.204,0.194,0.205,0.114,0.073,west,6.3,No
2023/07/16,06:30,0.143,0.131,0.203,0.193,0.205,0.113,0.074,west,5.7,No
2023/07/16,06:40,0.142,0.131,0.201,0.193,0.204,0.113,0.073,west,5.1,No
2023/07/16,06:50,0.141,0.130,0.203,0.195,0.205,0.113,0.074,west-southwest,5.0,No
2023/07/16,07:00,0.141,0.129,0.206,0.196,0.204,0.114,0.074,west,5.3,No
2023/07/16,07:10,0.141,0.129,0.205,0.196,0.204,0.115,0.074,west,6.6,No
2023/07/16,07:20,0.141,0.130,0.204,0.194,0.205,0.113,0.073,west,7.6,No
2023/07/16,07:30,0.143,0.131,0.203,0.194,0.204,0.113,0.074,west,7.0,No
2023/07/16,07:40,0.143,0.131,0.202,0.194,0.204,0.114,0.073,west-southwest,5.4,No
2023/07/16,07:50,0.143,0.131,0.202,0.194,0.206,0.114,0.073,west-southwest,5.0,No
2023/07/16,08:00,0.142,0.130,0.203,0.195,0.205,0.115,0.074,west-southwest,5.5,No
2023/07/16,08:10,0.142,0.130,0.204,0.195,0.205,0.115,0.074,west,5.3,No
2023/07/16,08:20,0.142,0.130,0.204,0.195,0.205,0.114,0.074,west,4.3,No
2023/07/16,08:30,0.142,0.131,0.204,0.196,0.208,0.114,0.074,west-southwest,5.0,No
2023/07/16,08:40,0.142,0.131,0.204,0.196,0.208,0.114,0.074,west-southwest,4.4,No
2023/07/16,08:50,0.143,0.131,0.205,0.197,0.207,0.114,0.074,west-southwest,4.0,No
2023/07/16,09:00,0.142,0.132,0.207,0.197,0.208,0.114,0.075,west-southwest,4.1,No
2023/07/16,09:10,0.142,0.131,0.206,0.199,0.210,0.114,0.075,west-southwest,6.1,No
2023/07/16,09:20,0.143,0.132,0.206,0.200,0.209,0.115,0.075,west-southwest,5.4,No
2023/07/16,09:30,0.144,0.132,0.206,0.199,0.209,0.114,0.076,west,2.6,No
2023/07/16,09:40,0.144,0.133,0.207,0.199,0.210,0.115,0.075,west,5.8,No
2023/07/16,09:50,0.143,0.133,0.207,0.200,0.208,0.115,0.075,west,7.3,No
2023/07/16,10:00,0.144,0.132,0.207,0.199,0.208,0.116,0.075,west,7.3,No
2023/07/16,10:10,0.145,0.133,0.206,0.199,0.208,0.116,0.073,west,7.6,No
2023/07/16,10:20,0.145,0.133,0.207,0.199,0.208,0.116,0.074,west,9.8,No
2023/07/16,10:30,0.145,0.133,0.206,0.198,0.207,0.117,0.074,west,9.0,No
2023/07/16,10:40,0.144,0.132,0.206,0.195,0.207,0.116,0.072,west,6.9,No
2023/07/16,10:50,0.144,0.132,0.206,0.197,0.207,0.116,0.073,west,8.1,No
2023/07/16,11:00,0.145,0.133,0.206,0.194,0.206,0.116,0.074,west,9.2,No
2023/07/16,11:10,0.145,0.132,0.208,0.194,0.207,0.116,0.074,west,8.9,No
2023/07/16,11:20,0.144,0.132,0.206,0.194,0.204,0.117,0.074,west,8.7,No
2023/07/16,11:30,0.145,0.133,0.205,0.194,0.204,0.116,0.073,west-northwest,7.0,No
2023/07/16,11:40,0.145,0.132,0.207,0.194,0.204,0.115,0.074,west,7.4,No
2023/07/16,11:50,0.143,0.132,0.206,0.194,0.203,0.117,0.074,west-northwest,6.6,No
2023/07/16,12:00,0.143,0.132,0.206,0.196,0.203,0.116,0.075,west,7.6,No
2023/07/16,12:10,0.144,0.132,0.207,0.195,0.203,0.116,0.074,west,7.1,No
2023/07/16,12:20,0.141,0.133,0.208,0.195,0.205,0.116,0.075,west,6.1,No
2023/07/16,12:30,0.142,0.133,0.208,0.195,0.205,0.116,0.074,west-northwest,7.1,No
2023/07/16,12:40,-,-,-,-,-,-,-,-,-,-
2023/07/16,12:50,0.143,0.133,0.208,0.196,0.206,0.116,0.075,west,6.0,No
2023/07/16,13:00,0.143,0.133,0.208,0.197,0.207,0.116,0.074,west-southwest,6.6,No
2023/07/16,13:10,0.144,0.131,0.208,0.198,0.207,0.116,0.075,west-southwest,5.3,No
2023/07/16,13:20,0.143,0.132,0.208,0.198,0.207,0.117,0.075,west,3.3,No
2023/07/16,13:30,0.144,0.131,0.206,0.197,0.207,0.116,0.074,west,6.5,No
2023/07/16,13:40,0.144,0.132,0.205,0.196,0.207,0.116,0.075,west-northwest,4.6,No
2023/07/16,13:50,0.144,0.132,0.204,0.197,0.207,0.116,0.074,west-northwest,3.2,No
2023/07/16,14:00,0.145,0.130,0.204,0.197,0.207,0.116,0.074,west,6.5,No
2023/07/16,14:10,0.143,0.130,0.203,0.197,0.208,0.116,0.074,west,5.7,No
2023/07/16,14:20,0.144,0.130,0.205,0.197,0.207,0.116,0.075,west,6.6,No
2023/07/16,14:30,0.144,0.130,0.204,0.197,0.208,0.116,0.074,west,3.7,No
2023/07/16,14:40,0.144,0.130,0.204,0.197,0.210,0.116,0.074,west,3.9,No
2023/07/16,14:50,0.144,0.130,0.206,0.197,0.208,0.116,0.075,west-northwest,3.9,No
2023/07/16,15:00,0.143,0.130,0.205,0.198,0.209,0.116,0.074,west-northwest,4.2,No
2023/07/16,15:10,0.143,0.129,0.206,0.198,0.208,0.115,0.074,west-northwest,5.3,No
2023/07/16,15:20,0.144,0.130,0.207,0.197,0.208,0.115,0.074,west,2.8,No
2023/07/16,15:30,0.143,0.131,0.206,0.196,0.208,0.115,0.074,west,4.2,No
2023/07/16,15:40,0.142,0.130,0.207,0.197,0.208,0.115,0.074,west,1.5,No
2023/07/16,15:50,0.142,0.131,0.208,0.197,0.207,0.114,0.074,northwest,1.1,No
2023/07/16,16:00,0.143,0.131,0.207,0.197,0.208,0.114,0.074,east-southeast,2.4,No
2023/07/16,16:10,0.143,0.132,0.208,0.197,0.207,0.115,0.074,south-southeast,3.2,No
2023/07/16,16:20,0.143,0.132,0.207,0.197,0.206,0.114,0.073,south-southeast,2.4,No
2023/07/16,16:30,0.144,0.131,0.207,0.197,0.206,0.115,0.074,south-southwest,0.7,No
2023/07/16,16:40,0.144,0.132,0.207,0.197,0.208,0.114,0.073,northwest,0.8,No
2023/07/16,16:50,0.145,0.131,0.206,0.196,0.209,0.115,0.074,west-northwest,2.5,No
2023/07/16,17:00,0.144,0.132,0.207,0.196,0.211,0.115,0.074,northwest,1.4,No
2023/07/16,17:10,0.144,0.132,0.208,0.195,0.211,0.114,0.075,west-northwest,2.0,No
2023/07/16,17:20,0.143,0.132,0.207,0.198,0.210,0.114,0.074,west,1.9,No
2023/07/16,17:30,0.144,0.133,0.208,0.198,0.210,0.114,0.074,west,3.0,No
2023/07/16,17:40,0.143,0.133,0.208,0.199,0.208,0.114,0.074,west-northwest,4.2,No
2023/07/16,17:50,0.144,0.131,0.207,0.198,0.208,0.114,0.074,west-northwest,5.7,No
2023/07/16,18:00,0.144,0.132,0.207,0.198,0.208,0.114,0.074,west-northwest,5.0,No
2023/07/16,18:10,0.143,0.132,0.207,0.199,0.207,0.115,0.074,west-northwest,5.3,No
2023/07/16,18:20,0.144,0.132,0.207,0.199,0.207,0.114,0.074,west-northwest,5.8,No
2023/07/16,18:30,0.144,0.132,0.206,0.198,0.206,0.115,0.075,west,5.6,No
2023/07/16,18:40,0.145,0.132,0.207,0.199,0.206,0.115,0.074,west-northwest,6.4,No
2023/07/16,18:50,0.144,0.132,0.207,0.198,0.207,0.115,0.074,west,4.6,No
2023/07/16,19:00,0.144,0.132,0.206,0.199,0.206,0.116,0.073,west,4.2,No
2023/07/16,19:10,0.144,0.132,0.206,0.197,0.207,0.115,0.075,west-northwest,3.8,No
2023/07/16,19:20,0.144,0.132,0.207,0.198,0.207,0.115,0.076,west-northwest,3.7,No
2023/07/16,19:30,0.143,0.131,0.207,0.197,0.206,0.114,0.075,west-northwest,3.0,No
2023/07/16,19:40,0.143,0.131,0.209,0.198,0.207,0.115,0.073,west-northwest,2.9,No
2023/07/16,19:50,0.143,0.132,0.211,0.198,0.207,0.116,0.074,west-northwest,5.4,No
2023/07/16,20:00,0.143,0.133,0.208,0.200,0.206,0.116,0.073,west-northwest,6.4,No
2023/07/16,20:10,0.144,0.134,0.207,0.201,0.207,0.115,0.074,west-northwest,4.6,No
2023/07/16,20:20,0.143,0.132,0.207,0.200,0.207,0.115,0.075,west,5.9,No
2023/07/16,20:30,0.144,0.131,0.206,0.199,0.208,0.115,0.075,west,5.5,No
2023/07/16,20:40,0.146,0.131,0.207,0.199,0.206,0.115,0.075,west,4.6,No
2023/07/16,20:50,0.146,0.131,0.209,0.197,0.207,0.116,0.075,west-northwest,4.8,No
2023/07/16,21:00,0.145,0.133,0.208,0.199,0.208,0.115,0.074,west-northwest,5.1,No
2023/07/16,21:10,0.144,0.133,0.208,0.201,0.208,0.115,0.074,west-northwest,2.2,No
2023/07/16,21:20,0.144,0.133,0.206,0.201,0.211,0.115,0.074,west-northwest,2.9,No
2023/07/16,21:30,0.143,0.132,0.205,0.199,0.210,0.116,0.073,west-northwest,2.9,No
2023/07/16,21:40,0.146,0.131,0.207,0.198,0.208,0.116,0.074,northwest,3.1,No
2023/07/16,21:50,0.145,0.133,0.210,0.198,0.208,0.116,0.074,north-northwest,3.2,No
2023/07/16,22:00,0.144,0.134,0.208,0.199,0.206,0.115,0.074,northwest,4.2,No
2023/07/16,22:10,0.143,0.133,0.206,0.201,0.207,0.115,0.074,northwest,2.0,No
2023/07/16,22:20,0.143,0.132,0.206,0.201,0.207,0.116,0.074,north-northwest,2.6,No
2023/07/16,22:30,0.146,0.131,0.206,0.200,0.206,0.116,0.074,west-northwest,2.8,No
2023/07/16,22:40,0.146,0.132,0.207,0.199,0.210,0.115,0.075,west-northwest,7.9,No
2023/07/16,22:50,0.144,0.133,0.208,0.198,0.210,0.114,0.074,west,10.1,No
2023/07/16,23:00,0.144,0.133,0.208,0.197,0.209,0.116,0.075,west,9.2,No
2023/07/16,23:10,0.143,0.132,0.206,0.200,0.208,0.115,0.074,west-northwest,6.5,No
2023/07/16,23:20,0.143,0.132,0.206,0.200,0.207,0.115,0.073,west-northwest,2.8,No
2023/07/16,23:30,0.143,0.132,0.206,0.200,0.207,0.115,0.074,-,CALM,No
2023/07/16,23:40,0.142,0.131,0.210,0.199,0.207,0.115,0.074,east,2.8,No
2023/07/16,23:50,0.145,0.132,0.209,0.198,0.206,0.115,0.074,east-northeast,3.4,No
